RH
98 98 99 98 99 100 100 100 100 100 100 99 99 99 98 94 90 86 80 73 68 63 63 71 76 72 65 54 45 33 26 45 53 43 37 21 13 13 8 7 4 5 16 26 30 32 34 29 23 19 22 26 29 30 32 36 35 46 60 65 73 71 62 64 69 62 61 71 74 75 67 66 76 67 55 52 52 51 48 43 34 28 24 28 37 40 43 45
98 98 98 98 98 99 100 100 100 101 101 99 99 96 91 85 78 72 64 53 44 39 40 46 49 52 52 46 40 33 42 60 50 30 24 16 14 13 8 5 4 6 16 26 29 29 25 22 19 18 22 27 28 29 35 36 37 46 53 64 67 63 68 64 61 59 56 64 71 73 65 64 69 63 57 58 58 52 49 44 33 30 30 34 39 41 43 43
95 95 94 96 99 100 100 101 100 97 90 83 77 70 61 53 50 46 41 36 33 32 32 29 27 32 39 39 34 39 58 58 35 26 25 19 16 16 12 5 4 7 18 28 26 22 19 18 17 17 21 27 28 29 35 36 43 49 48 65 64 55 69 64 58 64 61 62 66 68 65 63 60 57 58 58 58 53 48 43 37 37 37 38 39 40 42 41
83 82 78 83 90 91 90 88 83 72 59 51 45 41 37 34 34 33 34 34 33 33 28 22 21 27 34 33 29 44 61 45 22 26 29 20 15 15 10 4 4 8 21 29 22 18 17 15 15 15 19 25 27 29 33 35 47 56 58 66 53 46 63 62 64 70 66 66 63 63 65 64 59 56 57 56 57 55 47 39 36 39 38 39 39 38 39 38
68 68 61 62 65 65 64 62 55 46 40 37 34 32 31 30 28 28 29 30 32 32 24 19 21 32 37 25 28 52 53 27 15 26 25 15 15 13 6 4 5 13 25 27 20 18 16 15 14 13 16 23 29 34 34 32 39 47 47 47 41 47 61 64 72 69 60 65 66 64 63 62 63 62 59 55 55 53 46 38 34 35 35 37 37 36 37 36
52 53 52 50 47 46 47 46 41 37 35 31 29 28 25 24 23 23 24 25 28 28 21 18 23 34 32 19 35 58 43 16 15 25 20 14 18 10 4 4 6 19 26 24 21 19 17 16 13 13 15 21 32 39 37 30 32 38 35 34 40 51 62 69 73 62 53 63 70 65 58 58 62 64 59 51 50 47 41 36 32 32 32 34 35 34 34 33
39 41 43 43 41 41 41 40 36 34 30 26 25 23 22 22 22 22 23 24 26 25 19 16 25 31 26 29 50 54 31 12 17 27 20 16 19 8 3 5 11 28 27 20 21 19 18 15 13 12 13 21 31 37 35 29 29 31 34 39 48 55 63 68 65 55 55 67 73 63 54 54 56 58 55 49 47 43 38 33 29 31 31 31 32 32 31 31
35 36 36 36 37 38 38 36 33 30 26 23 22 21 21 21 21 22 22 24 25 24 16 15 26 24 23 42 49 36 21 13 18 29 23 18 18 6 5 11 21 33 27 17 18 18 18 15 13 10 12 21 28 34 32 31 29 25 36 50 55 61 62 60 55 55 65 76 73 60 52 51 51 54 54 50 46 41 36 32 29 29 30 30 30 30 29 29
34 33 32 32 33 33 33 32 30 28 26 24 23 22 22 21 22 22 22 23 25 23 12 15 24 17 31 52 38 19 17 16 19 30 33 31 24 9 9 16 21 28 24 16 16 18 17 14 12 9 12 20 26 32 30 29 29 28 45 58 62 71 69 61 59 60 68 73 66 58 53 50 48 51 56 51 45 40 34 32 30 29 30 30 28 28 28 28
33 31 31 30 30 30 30 29 28 27 26 25 25 25 24 25 25 23 23 22 26 21 10 16 18 18 44 54 29 16 18 19 19 29 36 35 27 16 15 13 15 22 20 14 13 15 15 12 10 7 12 23 27 29 29 25 25 36 54 61 65 78 79 71 70 68 66 65 59 54 54 55 50 52 60 52 42 38 33 32 31 30 31 29 28 28 28 28
32 30 29 28 28 27 27 26 26 25 25 25 25 25 26 27 27 27 23 22 28 19 11 17 14 27 51 41 19 14 17 17 18 29 33 26 22 18 16 13 14 18 16 12 12 12 12 11 8 8 15 24 27 26 28 22 19 37 56 65 70 75 78 74 73 73 69 71 69 58 54 59 55 54 60 52 41 38 35 34 31 30 30 29 29 28 28 28
30 29 28 27 26 25 24 24 24 24 24 24 24 25 27 28 29 28 22 24 29 17 12 16 17 38 50 30 15 9 11 14 16 29 29 21 20 19 16 14 13 15 14 12 12 11 11 10 7 10 16 21 26 26 25 19 21 41 56 68 76 77 80 76 73 72 71 80 84 71 61 62 60 57 58 49 41 39 37 34 31 30 29 29 29 28 29 28
29 28 27 26 24 23 23 22 22 22 23 24 26 29 30 29 28 26 24 28 27 16 15 17 28 53 47 21 10 5 9 12 16 26 23 18 18 16 15 12 12 14 15 13 11 12 11 10 9 10 14 20 27 23 20 17 26 52 61 64 75 80 84 80 73 71 72 81 83 76 72 70 65 59 56 49 43 42 40 35 30 29 28 28 30 29 29 28
28 27 26 25 24 23 21 21 21 21 23 26 29 30 30 30 29 27 27 29 25 17 17 22 40 61 43 16 7 6 12 13 17 22 17 16 13 13 14 12 14 15 15 14 12 11 10 10 10 11 14 20 24 19 20 16 25 56 63 62 69 68 75 78 72 74 80 83 78 72 73 71 65 60 56 49 45 43 40 36 30 29 29 29 29 29 30 29
27 26 25 24 23 22 21 21 20 20 24 27 29 31 33 34 33 32 29 28 26 20 27 43 56 56 34 14 7 9 16 15 18 18 15 15 11 12 13 11 14 14 15 14 12 13 12 10 10 13 16 19 21 20 22 18 30 63 68 64 63 56 70 78 73 77 79 79 77 72 75 75 65 60 57 51 47 43 40 37 31 29 28 29 29 28 30 29
27 26 25 23 22 21 20 20 19 20 25 26 28 31 36 39 38 36 31 28 29 30 46 59 54 44 28 12 9 14 18 16 17 17 15 15 12 11 11 10 12 12 14 12 12 13 11 11 9 12 16 19 23 22 22 20 33 57 59 62 65 60 72 77 76 77 69 72 80 74 78 81 67 58 56 52 50 44 39 37 32 30 29 28 27 27 29 29
27 26 25 23 21 20 19 19 18 20 24 25 27 33 41 45 42 39 36 37 45 50 58 52 35 32 22 8 10 16 15 15 17 18 16 15 14 12 9 9 9 9 12 10 12 12 9 11 9 11 14 18 23 22 26 30 36 43 45 63 76 67 66 74 84 81 63 67 78 74 76 77 65 58 56 54 52 45 39 38 32 30 30 28 26 26 28 29
26 25 25 23 20 19 18 18 17 20 24 24 26 35 45 49 47 50 50 53 62 60 54 45 33 29 18 9 12 13 11 14 17 18 18 17 16 13 10 8 7 8 9 8 10 10 9 9 8 11 13 16 22 22 28 33 37 42 48 67 75 63 59 67 79 75 63 67 72 75 81 76 65 60 58 55 53 46 39 38 33 30 31 30 26 26 28 28
26 24 24 22 20 18 17 17 17 20 24 22 29 47 58 59 60 63 59 53 51 40 31 29 25 20 14 11 10 10 12 15 17 18 18 17 15 14 12 10 8 7 8 8 9 9 9 9 10 13 13 17 21 21 25 28 34 41 49 69 74 64 65 66 68 66 61 70 76 75 81 79 67 61 59 55 53 48 42 38 35 33 32 30 27 25 28 28
26 24 23 21 20 17 16 17 15 20 25 22 39 61 56 46 44 43 40 37 28 17 13 14 13 12 12 10 9 10 13 15 16 16 16 16 15 13 12 11 9 7 7 7 8 8 7 9 11 11 11 15 19 19 22 27 34 35 42 70 78 67 73 72 71 70 62 73 84 75 75 81 73 63 56 54 55 49 44 43 38 36 34 32 29 27 28 28
26 24 22 20 19 17 15 16 14 20 24 21 40 50 29 20 22 20 21 21 14 9 11 11 10 11 11 10 11 10 12 14 14 14 15 15 14 12 11 11 10 8 7 6 7 8 8 9 10 9 8 12 17 18 19 20 30 34 38 66 74 60 68 70 68 73 68 72 82 77 75 81 80 72 58 51 55 52 45 45 41 37 37 34 30 30 30 28
27 24 22 20 20 17 14 15 14 19 24 26 37 32 15 16 19 17 20 17 11 9 10 10 10 11 10 11 12 11 12 14 14 14 15 15 12 12 11 11 11 8 6 5 7 8 10 9 7 7 6 10 16 18 18 16 21 29 33 59 74 59 64 74 71 73 69 64 72 79 80 82 83 79 70 57 52 50 45 45 43 38 40 37 32 33 32 29
28 24 22 20 20 18 15 14 14 18 24 31 32 21 14 18 17 17 20 19 14 9 8 9 10 10 10 11 11 11 12 13 16 15 14 14 12 11 10 10 10 7 5 5 7 9 11 9 7 7 5 11 18 19 20 17 17 22 29 57 74 57 59 79 81 75 69 65 65 70 75 83 87 85 83 72 59 54 47 46 45 40 42 38 31 33 34 31
29 25 22 20 20 19 15 13 16 20 24 28 23 15 17 19 18 18 18 18 15 9 8 8 8 8 9 11 10 11 12 12 14 15 13 13 12 10 9 10 9 7 5 4 6 9 9 7 6 6 7 14 20 20 21 17 17 21 26 43 56 49 50 71 83 75 72 75 69 69 81 91 91 89 89 83 77 73 60 55 53 45 42 38 32 33 34 32
34 32 25 20 21 19 16 16 21 23 22 21 18 16 19 17 18 20 20 21 15 8 9 8 7 8 8 10 11 11 11 9 11 13 13 12 11 10 9 8 8 8 7 5 6 7 6 7 7 6 10 17 20 20 20 17 18 20 20 27 38 44 43 55 73 74 78 86 70 66 88 96 90 86 83 82 90 87 70 65 63 52 44 40 37 37 36 35
39 38 31 25 22 20 21 23 21 18 16 14 15 17 17 17 21 23 24 24 14 8 9 8 7 8 8 10 10 9 11 10 10 12 12 11 11 11 10 9 8 8 7 5 5 5 5 7 9 11 14 17 18 18 17 17 18 19 17 21 31 37 33 38 55 60 70 84 70 57 75 94 93 82 74 75 88 89 77 71 64 55 49 43 39 40 38 36
38 38 35 30 24 22 28 28 20 14 13 13 15 17 15 19 25 25 27 26 15 8 9 7 7 7 7 8 7 10 15 13 10 11 11 12 11 11 12 11 8 9 8 5 6 5 6 10 13 14 16 17 16 16 15 15 18 17 15 17 23 29 30 35 45 50 57 66 66 55 59 88 98 80 70 73 81 84 79 76 67 57 52 44 40 40 39 37
35 35 34 32 28 25 25 25 22 15 13 14 16 15 16 22 27 25 28 27 14 8 9 7 7 7 6 6 7 10 14 11 12 13 10 11 12 11 12 11 9 9 8 7 7 5 7 13 14 13 15 15 14 15 13 14 17 16 14 13 16 22 25 29 32 40 55 64 70 61 47 68 88 75 70 77 79 78 75 73 69 61 54 46 41 40 39 38
34 33 33 31 28 22 17 21 26 18 14 16 16 15 18 23 25 25 28 23 11 8 9 7 7 7 6 6 7 9 10 10 13 13 10 11 12 12 13 11 9 10 9 8 7 7 9 11 12 11 12 13 13 13 12 14 16 13 13 13 14 17 18 23 23 26 49 66 73 69 45 50 79 78 73 81 79 71 68 67 64 61 58 50 42 41 41 40
35 34 32 30 30 30 24 22 21 16 15 18 17 17 19 21 25 29 27 17 10 9 8 8 8 7 7 7 8 8 8 10 12 13 12 11 11 12 12 11 10 10 10 9 7 8 9 9 11 11 11 11 11 12 12 13 14 13 16 17 16 18 17 24 24 24 49 61 50 50 41 43 70 78 70 75 72 62 62 64 62 61 61 56 48 41 40 41
35 33 32 29 32 38 33 22 17 16 18 19 18 17 19 22 25 26 22 13 11 10 8 8 8 7 7 7 8 8 8 9 10 13 14 13 12 12 12 12 12 12 13 10 8 9 12 12 13 11 10 11 10 13 13 12 14 14 17 20 23 27 28 30 30 34 56 57 32 30 37 37 54 70 69 60 50 47 54 60 62 65 63 60 54 43 38 40
34 30 28 24 24 27 24 21 21 21 20 20 19 17 21 26 23 17 14 11 13 11 8 9 9 8 8 7 8 8 8 8 9 12 15 14 13 12 12 13 13 14 15 12 8 11 14 13 13 10 10 12 11 14 15 14 15 15 18 24 30 38 42 42 43 50 55 44 30 33 39 38 47 64 68 53 38 37 46 51 54 59 60 58 56 47 40 38
30 23 20 18 16 16 17 22 23 19 20 22 20 18 21 26 21 13 10 10 12 11 8 9 9 8 9 9 9 8 8 9 8 9 12 12 13 12 11 11 11 13 14 11 9 11 14 13 11 12 11 12 12 13 17 17 16 16 17 23 30 39 46 44 45 53 48 33 32 36 33 38 54 62 54 40 32 32 43 50 47 51 56 55 55 50 43 38
25 18 14 12 10 9 14 19 16 18 23 22 20 21 22 22 18 12 11 10 10 9 8 9 9 9 9 9 9 8 9 11 8 8 10 11 14 13 11 11 12 13 12 12 10 9 14 15 12 12 12 12 13 12 14 14 14 16 15 17 25 30 35 40 43 53 50 38 42 44 32 33 56 67 49 31 26 26 39 49 44 46 53 54 55 53 46 40
20 14 13 16 13 9 11 13 15 24 27 19 18 21 21 19 15 12 12 10 9 9 8 9 9 9 10 9 9 9 10 12 10 8 10 11 14 15 13 12 12 12 13 15 12 8 11 13 10 10 11 10 12 11 10 11 13 15 13 16 23 23 26 35 40 45 46 43 48 51 41 35 46 54 39 26 26 25 30 40 42 46 52 54 57 55 49 43
24 20 22 27 22 17 18 18 23 29 25 18 20 20 16 15 13 11 12 10 9 10 9 10 9 11 13 11 10 11 10 12 12 12 12 11 13 14 12 12 11 11 12 14 14 11 11 11 8 10 10 9 10 10 8 11 13 15 16 18 19 18 23 30 33 30 32 45 49 44 43 44 42 39 29 24 29 28 27 36 45 48 51 54 57 55 53 49
28 25 25 25 20 20 24 26 29 29 23 19 22 19 13 12 11 9 11 10 9 9 10 13 12 11 14 13 12 12 12 13 14 15 15 13 14 14 11 11 11 10 10 12 14 13 11 11 9 10 11 9 8 9 8 9 10 13 17 16 15 18 21 27 33 32 37 52 50 35 38 46 43 39 34 27 28 29 28 36 49 53 53 56 57 56 57 57
27 20 19 17 16 20 24 28 29 24 20 20 18 15 11 11 10 9 10 10 9 10 11 14 14 11 13 14 12 11 12 15 17 16 17 16 16 14 12 11 11 10 9 10 14 13 11 13 11 9 11 10 8 9 10 9 8 10 12 11 15 24 25 27 34 37 40 47 43 32 34 42 45 45 39 33 31 31 29 37 50 54 53 55 56 58 62 62
29 19 16 15 15 19 23 28 25 19 17 17 15 13 10 10 10 9 10 10 10 11 11 13 13 11 12 12 12 11 11 14 16 16 17 18 17 15 12 12 12 11 10 10 12 12 11 15 14 9 8 9 9 10 11 10 9 9 9 9 11 18 22 25 29 33 36 42 43 38 35 39 43 40 35 37 40 36 32 39 48 49 49 53 53 56 61 61
24 17 16 15 14 19 24 25 20 16 15 13 12 12 10 10 11 9 10 10 10 11 12 12 13 13 13 12 11 11 11 14 15 15 16 16 16 15 12 13 13 12 11 10 11 11 12 15 15 11 8 8 10 10 9 9 9 9 10 11 10 11 15 20 23 25 29 37 42 40 43 51 51 41 36 37 40 39 34 38 46 45 47 51 51 53 59 60
17 15 16 14 14 18 21 20 17 13 11 9 9 10 10 11 10 9 9 10 9 10 11 12 13 14 14 12 12 11 11 12 12 13 14 13 15 17 14 13 13 13 13 12 11 12 14 16 16 13 10 9 9 8 6 7 7 9 9 9 11 11 12 20 24 21 20 26 29 28 42 57 52 44 43 35 33 36 32 36 47 46 45 48 49 51 56 58
17 16 16 14 15 16 16 16 12 9 8 9 8 8 10 11 9 8 8 9 10 9 9 12 13 13 13 13 13 13 12 12 11 13 14 13 14 16 14 13 13 12 14 14 11 13 17 20 20 17 12 9 8 6 6 6 5 7 8 7 9 9 10 17 21 19 17 18 19 18 31 49 46 39 41 35 31 32 30 36 47 46 44 47 50 50 51 56
15 15 15 16 15 14 15 15 11 8 9 9 7 6 8 8 8 8 7 7 9 10 10 12 12 13 15 13 12 13 13 13 13 12 12 13 12 12 12 13 12 12 14 15 15 16 19 20 20 20 16 11 8 6 5 5 4 6 7 7 7 7 9 12 13 15 17 17 20 19 28 48 51 40 38 37 33 31 33 41 47 47 45 46 53 55 53 60
12 13 13 16 15 12 14 14 11 10 10 9 8 8 7 8 8 8 9 9 9 9 11 12 13 13 14 13 13 13 13 15 15 13 13 13 12 12 12 11 12 14 14 15 18 17 21 26 23 21 21 18 15 10 7 7 6 7 8 7 7 6 7 9 9 12 14 15 20 19 26 46 51 43 42 39 34 35 39 42 46 50 51 47 50 54 54 62
15 14 11 12 14 11 12 13 10 9 10 10 10 9 8 9 9 8 9 10 8 8 11 12 13 13 12 13 14 13 13 15 16 15 13 12 12 11 10 11 13 13 13 21 24 17 20 30 29 24 24 22 21 19 14 10 8 8 8 7 8 7 6 8 10 12 14 15 16 15 26 47 51 46 48 43 37 41 44 45 47 51 55 51 47 51 54 60
16 15 12 11 11 10 9 10 9 9 10 11 12 10 9 10 10 9 8 9 9 8 10 11 11 12 13 13 15 16 14 13 14 16 16 14 13 11 10 11 10 13 25 37 33 19 20 27 28 29 28 23 24 26 19 12 9 9 9 7 7 7 6 9 11 12 14 15 15 15 25 42 49 49 50 46 43 46 49 52 53 52 53 52 49 52 55 56
16 15 12 12 12 10 10 8 8 8 9 10 12 11 10 10 11 10 8 9 10 8 9 10 10 12 15 16 17 18 17 15 16 17 16 15 14 12 11 9 9 22 39 38 23 16 23 28 25 27 27 21 21 23 17 12 10 8 7 7 8 7 7 10 11 13 17 17 18 22 23 29 43 51 50 48 48 52 57 62 63 60 55 53 53 54 54 56
16 15 11 14 14 10 10 10 8 9 8 8 11 11 10 11 11 11 10 10 9 8 10 12 11 11 13 15 17 20 21 21 20 19 19 19 16 13 13 10 9 21 28 19 12 16 25 28 23 20 21 17 15 15 14 13 10 8 7 7 8 10 10 11 11 11 16 18 21 30 33 31 39 46 46 47 49 54 62 66 66 65 61 57 59 59 56 56
15 16 12 15 14 10 11 11 9 10 10 10 11 11 11 11 11 11 10 10 12 11 9 13 16 13 11 13 16 21 24 26 29 27 23 21 19 15 16 15 11 12 14 11 14 18 22 25 24 22 21 17 14 16 15 13 11 11 12 11 11 12 10 10 10 9 16 20 21 34 48 54 57 55 49 48 50 54 62 65 67 71 70 66 63 62 62 62
22 26 25 21 14 11 13 13 11 11 10 11 13 12 11 11 11 12 10 10 16 16 10 12 16 14 12 13 15 18 21 23 30 30 21 22 28 23 18 18 14 12 13 13 16 20 22 26 27 28 29 22 15 16 16 15 17 19 19 18 15 12 9 12 16 18 23 25 23 36 54 62 65 61 51 48 52 58 63 65 69 73 71 67 64 63 68 73
28 32 36 32 21 15 14 13 12 12 11 12 13 13 12 11 11 12 12 10 13 16 13 13 15 12 10 12 14 16 16 17 21 21 16 19 26 22 17 17 15 14 16 16 18 21 22 25 25 30 40 35 20 17 21 19 19 24 26 25 26 24 20 23 28 31 32 31 34 47 58 59 57 55 53 53 57 63 66 68 72 73 71 70 69 70 76 81
30 31 33 32 25 20 17 14 12 13 12 11 12 12 12 11 10 12 16 14 12 12 12 12 14 14 13 14 16 15 13 13 14 14 13 13 14 13 14 14 13 14 16 16 18 20 20 26 31 33 41 38 20 15 24 26 27 32 31 27 35 43 39 34 34 34 33 37 46 55 58 56 54 53 55 56 58 63 68 68 70 72 73 72 71 73 77 75
Wind_Speed
12 12 12 11 11 11 11 11 10 10 10 10 10 9 9 9 9 9 9 9 10 11 11 11 12 12 12 11 11 10 9 10 12 12 14 11 7 7 10 8 9 13 17 16 14 13 13 13 13 11 10 7 6 6 4 5 4 2 3 2 1 1 2 3 3 5 11 13 11 9 8 12 11 9 9 9 11 11 10 9 10 11 15 20 23 26 26 24
12 12 12 11 12 12 11 11 11 11 10 10 9 9 9 9 9 8 8 9 10 11 12 13 13 13 12 10 9 8 10 12 15 16 16 14 11 12 14 11 10 15 19 16 16 16 13 12 12 11 9 5 5 4 3 3 2 4 4 1 2 2 3 2 6 7 11 14 13 12 11 11 12 12 10 10 13 12 12 12 12 17 20 23 25 26 24 24
12 12 12 12 12 12 12 12 11 11 10 10 9 9 9 9 9 8 8 9 10 11 12 13 13 13 11 9 8 7 10 14 15 11 9 10 11 12 13 12 12 17 20 17 16 16 12 10 10 10 9 6 5 4 4 4 2 5 4 1 3 4 5 4 9 8 9 14 15 13 12 11 12 11 9 12 15 13 13 14 15 19 21 22 23 23 24 24
12 12 12 12 12 12 12 12 11 10 10 10 9 9 8 8 8 8 9 10 11 12 13 13 13 12 9 7 5 6 9 13 6 4 5 4 6 7 12 13 13 19 21 16 13 15 12 9 10 10 9 7 5 5 5 3 3 3 3 5 4 7 5 4 10 11 11 14 13 13 13 11 11 8 9 13 14 11 12 14 18 21 22 22 21 22 23 22
12 12 12 12 12 12 12 12 11 10 10 9 9 9 8 8 8 9 11 12 12 13 13 13 12 10 7 5 3 5 9 7 3 8 3 4 6 4 13 15 15 20 20 15 13 14 13 9 10 10 9 7 5 6 5 4 4 4 5 6 5 9 4 2 9 14 14 15 13 13 14 11 9 7 8 12 10 8 10 14 19 21 22 22 21 21 20 21
12 12 12 12 13 12 12 12 11 10 9 9 9 9 9 9 10 11 11 12 13 14 13 12 11 7 4 3 3 6 9 2 6 5 2 4 5 4 14 15 16 20 18 15 14 14 12 10 10 9 9 8 6 6 3 3 4 4 5 2 8 7 3 6 9 13 13 15 13 10 12 12 12 11 10 10 9 10 11 14 19 21 23 24 22 21 19 18
12 12 12 13 13 13 12 12 11 10 10 9 9 9 9 10 11 11 12 12 13 14 13 11 9 5 3 4 4 7 10 3 6 6 7 4 2 6 14 15 17 19 17 16 15 13 11 11 11 9 9 7 6 6 3 2 6 6 3 6 9 6 5 10 11 12 12 12 9 7 10 12 13 13 9 9 11 13 13 15 19 21 23 24 21 19 18 17
12 12 12 12 12 13 12 12 11 10 10 10 10 10 11 11 11 11 12 12 12 13 12 10 7 4 4 5 7 8 8 1 7 7 8 2 4 11 15 14 17 17 16 16 14 13 11 12 12 9 9 6 3 4 3 4 8 6 3 9 8 6 6 10 13 13 12 9 6 9 11 12 12 12 10 11 13 14 15 17 19 21 22 20 19 19 17 16
12 12 12 12 12 12 12 12 11 10 10 10 11 12 12 12 12 11 11 11 10 11 10 7 4 3 4 5 9 7 2 6 8 5 4 2 9 16 16 14 17 16 15 16 15 14 11 10 12 11 8 6 3 5 5 6 3 3 8 10 8 6 6 9 13 12 12 9 9 12 13 12 13 12 11 12 13 14 16 18 19 20 20 19 17 18 16 16
14 13 13 13 13 12 12 11 11 10 11 11 11 12 12 13 14 12 10 10 9 9 8 5 4 3 5 8 10 5 5 7 6 4 3 7 13 17 15 14 17 16 14 14 15 15 12 10 11 10 8 6 4 4 5 4 3 9 10 10 9 10 8 8 12 10 9 8 7 11 14 13 10 7 9 12 13 15 17 18 19 19 19 18 17 16 16 16
15 14 14 13 13 12 11 11 11 11 12 12 12 12 12 12 13 12 9 8 7 7 6 3 3 3 8 10 9 3 6 5 5 5 5 10 13 15 13 13 16 16 14 13 14 14 14 11 9 7 5 3 4 5 5 4 3 8 11 10 10 11 9 9 11 8 6 4 2 5 13 12 5 5 11 13 12 14 17 19 19 18 17 17 17 15 14 15
15 15 15 13 13 13 12 12 12 13 13 12 11 11 11 11 11 10 8 7 6 5 3 2 2 3 9 11 6 3 5 3 3 4 7 9 11 11 9 11 14 15 12 12 13 14 15 11 9 10 5 3 4 4 4 3 1 8 10 8 10 10 7 8 10 7 5 3 4 2 10 9 5 10 14 13 12 14 17 18 19 18 17 16 16 14 12 14
15 16 15 15 14 13 13 12 12 14 14 11 9 10 10 9 9 8 6 6 5 4 2 1 2 4 10 6 2 4 2 1 2 4 6 7 8 7 7 10 12 11 11 10 11 12 13 10 10 12 9 7 5 1 2 4 4 8 8 5 8 9 6 6 8 8 6 3 3 2 5 7 7 12 13 12 12 15 16 17 17 16 15 15 14 13 12 14
16 16 16 16 15 14 13 13 13 14 12 9 8 9 7 6 7 6 4 5 4 2 1 1 2 6 9 2 6 3 2 1 3 6 6 7 8 8 8 9 8 8 8 9 10 11 11 10 11 11 9 10 7 2 3 7 5 5 5 5 5 5 8 7 6 9 7 3 2 2 4 7 9 12 12 12 13 15 17 16 17 16 15 14 13 13 13 13
16 16 16 16 16 15 14 13 14 14 11 8 9 8 6 6 7 5 4 3 1 1 1 3 4 6 8 2 5 4 6 5 6 7 7 8 8 9 10 9 8 7 6 6 6 8 9 9 11 9 8 10 8 6 7 8 5 5 4 4 4 4 7 8 7 8 7 6 4 3 4 6 8 12 11 11 12 14 17 16 16 17 16 15 14 13 12 13
17 17 17 16 16 15 15 14 14 14 10 9 10 8 6 6 6 5 3 1 1 1 2 4 5 7 7 2 7 7 7 5 6 8 7 7 7 8 10 9 8 8 7 5 3 5 8 9 9 9 9 9 8 8 7 7 6 6 3 1 3 5 7 8 7 8 8 11 5 2 5 5 6 11 12 12 13 14 16 16 16 17 17 16 14 13 12 13
17 17 18 17 16 15 15 14 14 13 9 9 11 9 7 6 5 3 2 1 1 1 5 7 5 7 5 3 7 8 5 4 6 8 7 5 3 8 11 9 9 9 8 7 5 7 8 8 7 8 9 8 8 8 7 8 6 5 3 1 4 8 9 9 6 8 9 12 6 3 5 6 8 11 13 12 13 13 15 16 16 16 15 15 14 13 13 13
17 18 18 18 17 16 15 13 14 12 8 10 11 10 7 6 5 3 2 1 2 5 8 8 6 5 2 4 4 3 4 5 6 7 8 5 4 9 10 8 8 9 8 8 8 9 8 7 7 7 8 8 8 9 8 7 2 2 4 2 3 8 9 9 8 8 11 11 8 7 7 8 11 11 12 12 12 12 14 15 14 15 15 14 14 14 14 14
17 18 18 18 17 16 15 13 14 11 8 10 11 10 7 5 4 6 8 6 6 3 1 3 4 2 4 4 2 3 4 5 6 7 8 7 7 9 8 7 9 10 9 8 9 10 8 7 8 8 8 9 11 11 8 1 4 4 6 4 1 5 6 6 10 10 11 11 9 8 8 10 12 12 12 12 12 12 14 14 13 13 14 13 14 13 14 14
17 18 17 18 17 16 15 13 13 10 7 8 9 9 6 3 2 3 7 8 5 4 4 2 4 3 1 3 3 3 5 6 8 8 9 9 9 9 8 8 9 9 9 8 9 10 8 7 9 9 11 12 13 14 8 5 4 5 4 8 4 5 5 4 10 12 8 8 6 7 10 10 10 11 12 12 12 12 14 15 14 13 13 13 14 14 15 14
19 18 18 17 16 16 14 13 13 9 7 7 8 9 4 7 5 4 4 4 2 3 3 4 6 4 3 4 2 3 7 8 8 7 9 10 10 9 8 9 9 8 10 9 8 8 8 9 10 12 14 13 13 14 9 5 7 4 4 8 8 7 7 5 10 13 9 6 5 6 9 11 10 9 10 12 13 13 14 15 15 16 15 13 13 15 15 13
20 19 18 17 16 15 13 13 12 10 8 7 9 10 5 9 6 7 9 5 5 2 2 1 3 2 2 2 2 5 8 8 8 8 9 10 12 9 7 10 10 7 10 10 7 8 9 10 11 13 15 13 11 12 9 7 7 8 6 5 6 7 9 5 7 12 8 5 8 10 8 8 9 7 8 11 13 12 13 14 15 16 15 14 14 14 15 14
21 21 19 17 17 15 14 12 12 11 9 8 10 9 6 6 6 7 8 7 2 2 1 1 3 1 4 1 3 7 11 7 8 9 9 10 11 7 5 9 10 9 10 10 8 7 8 10 12 13 13 10 9 11 10 9 9 6 1 0 4 10 10 3 4 9 5 0 6 11 6 4 7 7 7 9 10 10 12 14 14 14 14 15 15 14 15 15
21 21 19 18 17 15 14 13 12 11 9 12 11 7 5 4 8 10 8 9 1 4 2 3 3 4 5 3 4 10 9 5 8 9 9 11 8 4 7 9 10 9 8 10 11 9 8 9 13 15 11 8 9 10 10 10 7 3 2 3 2 7 11 8 6 7 5 2 5 9 5 2 5 8 8 7 7 8 10 11 10 13 14 14 15 15 15 15
21 20 19 18 16 14 15 13 10 8 8 11 8 3 4 5 7 9 8 7 2 5 5 4 1 3 4 1 5 7 6 4 8 9 10 12 6 4 7 7 8 8 8 12 12 10 10 7 10 14 12 9 11 12 11 9 7 5 6 3 2 3 7 13 12 9 6 2 7 9 4 3 6 9 10 8 6 8 9 10 9 12 15 14 14 15 15 16
20 20 18 17 15 13 13 7 4 5 8 7 1 2 4 6 7 7 7 5 2 3 4 5 2 2 2 4 4 4 5 4 4 8 10 9 5 3 4 5 6 7 8 12 9 7 8 5 4 7 10 12 13 11 11 9 8 5 5 5 7 6 5 10 11 8 5 3 8 11 4 2 5 10 11 10 9 10 9 10 12 13 14 14 14 14 15 16
20 19 18 16 14 11 8 4 4 7 7 1 3 5 6 7 8 5 6 5 3 3 1 2 2 1 1 1 2 4 2 6 5 7 8 7 5 5 6 7 6 6 4 6 6 7 6 4 5 6 8 11 11 10 10 9 7 1 4 2 7 8 6 7 8 6 3 3 7 13 7 3 4 8 11 11 12 12 12 13 14 13 14 16 15 15 16 16
20 18 16 15 12 10 9 9 10 10 5 5 4 7 6 7 7 5 6 2 5 2 1 3 3 1 3 2 3 4 3 6 6 8 8 7 7 7 7 7 7 6 5 6 7 6 6 5 8 10 10 9 9 10 8 8 6 2 3 4 4 6 6 7 8 6 6 5 3 10 10 5 2 4 10 13 13 15 17 18 17 16 15 17 16 16 17 17
20 17 15 13 11 10 11 10 11 10 6 6 6 7 8 7 5 6 5 2 2 0 1 2 2 3 5 4 3 4 4 5 2 5 8 8 7 8 7 4 7 7 8 11 9 5 7 9 9 11 12 8 10 12 8 9 6 2 3 6 4 6 7 7 7 5 7 6 3 11 14 7 1 3 8 11 11 14 16 16 17 17 15 15 16 17 17 16
19 15 13 10 7 6 7 9 13 11 6 7 8 9 10 7 5 7 2 3 2 2 2 1 1 1 5 7 6 3 4 4 4 5 7 6 8 9 8 5 6 5 7 12 13 4 3 5 4 8 11 7 10 11 7 8 5 3 5 7 5 6 4 4 6 3 3 5 7 14 16 8 3 5 9 9 10 14 14 13 15 17 16 14 14 16 17 15
17 13 11 8 6 5 6 6 7 7 6 7 9 10 9 5 6 6 4 3 2 1 1 1 1 1 6 6 3 3 4 3 4 7 5 5 8 9 8 4 4 5 6 9 11 5 2 3 2 6 9 7 10 9 6 6 7 6 6 6 5 4 2 3 4 2 4 5 5 8 14 11 5 5 8 10 12 15 15 14 17 18 18 16 13 14 17 15
14 11 9 8 9 12 11 4 1 3 6 8 9 9 7 5 5 3 6 1 3 2 2 2 3 1 3 5 1 2 2 2 3 6 7 8 7 6 9 7 4 7 7 7 9 7 6 7 7 8 7 7 10 10 7 7 10 8 7 6 6 4 3 5 3 2 5 4 4 5 7 9 4 4 10 12 12 14 15 15 17 20 20 18 16 15 15 15
11 8 6 7 9 12 12 9 7 7 8 10 9 7 6 5 2 4 4 2 2 4 2 2 4 1 2 4 3 1 2 3 3 6 7 8 6 7 10 6 5 8 5 6 9 8 6 8 11 11 8 7 11 10 8 7 9 10 9 8 7 5 6 7 4 4 7 4 3 8 6 5 5 6 12 16 13 13 16 17 18 21 21 20 18 16 14 16
6 3 3 4 8 11 11 10 10 8 9 10 8 6 7 4 3 1 3 3 5 2 1 0 5 3 1 3 2 1 3 2 3 4 5 6 5 6 8 6 5 9 5 6 9 9 8 7 11 12 9 10 12 10 8 8 8 10 10 8 8 7 6 6 4 3 5 2 3 6 6 2 5 5 10 13 13 11 15 17 19 20 20 19 17 16 15 16
3 0 2 3 6 9 9 10 10 9 8 8 7 6 5 2 2 1 3 4 2 4 2 1 6 5 1 3 2 1 3 2 5 4 4 6 5 4 5 5 7 8 5 5 6 8 10 8 12 15 11 13 15 13 10 9 8 9 9 8 8 6 5 5 4 3 5 4 3 5 4 3 5 7 8 8 11 10 11 15 18 19 20 18 16 16 16 15
1 2 4 6 6 6 8 9 9 8 7 7 6 5 2 3 4 4 5 5 4 6 5 3 5 4 1 2 1 2 2 2 4 5 2 4 5 4 5 3 3 6 6 4 5 6 9 6 12 17 12 14 16 14 12 9 7 6 8 9 7 5 5 6 7 7 6 6 3 4 3 2 4 6 5 6 9 10 9 12 16 17 19 18 16 16 16 13
5 5 6 7 6 5 7 7 8 8 8 8 4 3 3 3 3 4 4 5 5 3 6 5 1 2 2 2 0 3 3 1 2 3 2 2 2 1 4 3 1 6 7 3 5 6 7 4 11 15 11 11 14 15 14 12 8 4 7 10 7 6 7 5 5 6 5 6 4 5 6 5 4 4 5 7 9 10 10 11 14 15 17 17 15 15 14 11
7 7 5 5 5 4 6 7 9 8 7 7 2 2 3 1 3 4 4 5 6 4 5 4 1 2 4 2 1 2 3 1 0 1 2 2 0 2 6 3 3 4 7 5 6 5 6 6 8 13 12 10 11 12 13 12 13 10 6 8 9 7 7 6 5 5 6 7 4 4 8 7 4 4 6 6 6 8 10 12 13 15 17 16 16 16 15 13
9 8 5 7 5 4 6 7 9 9 7 6 2 2 2 1 3 2 4 4 5 4 5 3 0 3 4 2 2 1 1 1 1 2 2 1 2 1 5 3 2 3 5 7 8 3 4 7 5 10 12 11 10 10 10 11 13 12 8 7 10 8 6 6 5 5 5 4 3 4 6 2 3 5 9 8 6 7 9 12 13 14 15 15 15 17 15 13
9 7 5 10 6 5 6 8 9 8 6 3 2 1 1 0 2 2 3 5 4 2 4 4 2 3 3 2 2 0 0 1 0 1 1 1 2 2 2 3 3 4 5 7 8 4 4 7 3 7 11 11 9 9 11 11 12 11 8 7 9 8 7 7 6 6 5 3 3 4 4 0 2 1 7 9 9 9 9 11 11 11 13 14 15 17 15 12
9 6 5 11 7 5 7 9 6 5 4 1 1 0 1 2 2 1 2 2 3 1 3 5 4 4 3 3 2 1 0 1 1 1 0 2 1 1 0 3 5 6 6 7 6 3 4 6 5 5 8 9 9 11 14 14 12 11 10 9 9 9 8 8 8 8 8 7 6 6 3 3 1 2 4 6 7 8 9 11 11 9 13 14 13 15 15 12
8 4 6 10 8 6 9 8 1 3 4 2 2 1 3 1 5 3 1 2 2 1 2 3 3 5 4 3 3 1 2 2 2 1 0 3 1 1 1 3 7 7 6 6 4 1 2 6 7 6 6 8 10 13 15 17 15 13 12 11 11 10 9 9 9 8 8 9 8 8 5 2 1 2 4 5 5 6 7 9 10 9 11 13 12 14 15 13
7 2 8 9 7 6 10 6 2 3 2 3 2 1 2 3 3 2 1 2 2 2 2 2 2 4 3 3 5 3 2 2 1 0 1 2 3 1 2 4 7 6 4 5 4 1 1 6 7 8 7 6 9 12 14 16 15 11 11 12 12 11 10 10 10 7 8 8 6 7 6 3 2 2 3 5 6 7 7 9 10 8 8 11 12 13 14 14
6 1 7 8 7 7 9 6 3 4 4 2 3 4 2 2 3 4 3 2 2 3 4 2 1 3 2 3 5 3 1 2 1 1 2 1 4 2 3 5 5 5 3 2 4 1 2 6 6 8 7 5 7 9 11 12 11 8 9 13 13 15 15 12 10 9 8 9 10 8 5 2 3 1 2 5 7 9 9 10 10 9 7 8 12 12 13 13
6 3 3 6 8 8 8 6 7 2 6 4 6 5 5 3 2 3 5 3 2 5 5 2 1 4 4 2 4 4 2 4 3 1 2 2 3 3 2 3 4 5 2 3 7 6 3 5 7 8 8 8 7 6 5 7 9 8 10 13 16 19 19 12 8 9 9 10 11 9 4 3 4 2 3 6 8 10 11 10 9 9 9 9 11 12 12 12
5 5 4 6 8 7 7 4 7 6 2 5 6 4 5 4 6 2 4 1 0 3 5 2 1 4 4 3 5 4 2 4 3 2 3 3 3 3 1 3 4 2 2 3 9 8 4 5 7 8 8 7 4 4 7 9 10 11 13 15 16 19 17 11 8 9 7 7 8 7 4 6 5 2 4 6 8 10 11 9 6 7 10 11 11 12 12 11
5 5 4 3 5 6 6 5 6 6 1 3 4 4 4 4 4 5 3 1 1 3 4 3 3 4 3 4 5 3 2 3 3 3 4 3 1 2 1 5 4 4 4 5 9 6 5 5 7 9 10 10 7 7 10 12 13 15 17 17 13 12 13 11 10 6 2 4 6 3 2 6 8 6 6 6 8 9 9 8 5 3 8 11 11 12 12 11
5 5 3 2 2 5 5 4 6 6 3 3 2 3 4 5 3 4 2 1 1 3 3 3 4 4 4 4 4 3 2 3 4 2 3 3 2 2 4 5 4 4 6 9 7 3 4 5 7 10 10 12 12 9 10 13 14 13 14 14 12 12 13 13 14 10 4 5 4 7 7 1 5 8 6 5 7 9 9 8 6 3 5 10 11 12 12 11
5 5 1 1 4 5 2 1 2 5 5 4 2 2 5 6 4 2 0 1 3 1 3 4 1 2 5 4 4 5 2 3 4 1 2 4 5 3 3 4 4 2 4 7 3 1 3 4 6 10 10 11 12 9 11 14 11 7 7 8 10 13 14 13 14 11 5 5 5 4 8 7 6 4 6 7 8 10 9 8 6 4 5 9 11 12 11 11
4 4 2 3 6 6 4 1 4 7 5 3 3 4 5 6 3 3 1 3 2 1 2 5 1 2 5 3 4 6 1 2 4 2 3 4 4 4 2 0 2 3 4 5 2 1 3 3 4 8 9 8 10 11 11 10 7 5 4 6 9 11 12 9 7 5 3 5 5 5 7 5 5 5 6 7 8 8 8 8 7 6 6 8 10 12 12 11
6 5 4 4 5 5 6 5 5 7 5 5 5 4 5 6 3 3 3 1 4 2 2 3 1 2 4 3 5 5 2 2 5 3 3 4 2 3 2 2 3 4 3 4 2 3 4 3 2 4 6 5 10 12 10 10 11 8 2 2 2 4 5 2 0 3 1 3 5 6 5 3 5 6 6 6 7 8 8 8 8 6 6 8 10 12 12 11
7 5 2 5 5 3 5 6 6 7 6 6 6 4 4 5 3 2 2 1 1 3 3 2 2 3 4 3 2 2 3 4 5 2 3 4 3 2 2 2 3 4 3 3 3 4 6 3 1 4 5 5 7 8 8 8 10 8 3 6 6 4 4 3 5 2 3 2 2 3 4 4 5 6 5 7 7 8 8 8 8 7 7 8 10 11 10 9
Wind_Direction
351 348 345 344 342 340 339 337 335 334 331 328 325 323 322 322 321 322 322 324 325 322 322 319 316 314 314 317 319 330 336 311 288 249 234 248 255 248 253 250 222 193 176 185 201 202 202 207 212 210 216 217 226 244 216 224 251 257 269 298 315 299 14 70 139 160 135 139 143 154 166 133 128 142 132 135 135 129 130 126 129 131 124 121 127 135 138 140
348 347 345 344 342 340 339 336 335 333 331 329 325 326 326 323 323 324 324 327 326 326 327 322 318 315 313 321 325 339 336 300 275 256 243 246 252 253 254 242 214 187 177 193 202 200 203 203 203 205 216 221 216 214 196 216 229 255 268 313 316 45 57 92 133 143 141 140 143 156 158 139 141 141 142 148 137 135 133 126 127 122 117 122 130 137 141 143
347 346 345 344 342 339 338 336 335 336 334 332 331 332 331 331 329 325 326 327 328 328 326 323 320 315 317 328 332 347 327 292 271 253 229 233 251 257 245 222 205 185 182 198 203 202 211 207 200 208 223 226 214 206 202 193 187 286 304 274 275 80 92 148 137 133 139 137 140 147 145 145 146 143 157 149 138 142 136 131 131 126 127 132 136 142 145 146
348 346 347 346 343 341 340 339 338 339 339 339 338 338 338 337 333 328 328 326 327 328 326 325 321 318 327 336 351 359 310 280 266 127 148 228 283 264 221 199 191 186 191 207 207 210 221 215 208 218 234 234 215 225 239 186 163 278 290 263 305 71 97 156 142 148 151 140 137 139 139 146 142 144 161 145 139 144 141 141 137 135 137 138 140 145 148 148
348 348 349 350 348 346 346 344 344 345 345 346 344 344 342 338 335 331 329 326 326 326 327 327 324 327 337 343 8 339 290 269 93 94 115 272 313 266 200 185 182 187 199 213 209 216 226 221 217 224 240 246 220 221 233 195 198 248 242 251 0 53 81 121 144 155 150 138 138 143 142 147 149 151 160 147 139 137 141 142 138 139 140 141 143 145 150 148
351 352 352 353 353 351 352 350 350 350 349 349 345 343 339 334 331 327 327 326 324 327 331 334 335 338 343 346 343 293 272 277 75 70 355 298 313 221 188 177 177 187 204 216 210 216 223 220 219 223 236 243 231 229 226 190 223 264 266 310 29 39 136 135 137 147 144 137 139 146 140 147 152 148 156 153 131 124 136 141 139 139 139 141 142 145 151 149
356 356 355 355 356 356 356 353 353 352 347 345 341 335 330 326 322 322 323 321 322 328 333 340 347 352 345 325 297 261 250 263 63 29 334 298 269 186 181 172 176 193 212 216 210 213 216 216 218 226 237 240 230 230 243 236 241 255 306 28 46 53 127 138 137 141 138 124 127 154 149 150 147 138 140 131 120 125 136 139 138 138 139 141 143 148 150 149
360 359 358 358 360 0 358 356 355 350 345 338 332 325 320 316 313 315 317 316 320 325 333 347 358 6 351 314 278 247 230 357 49 14 335 296 190 180 173 170 185 203 215 213 210 209 212 217 221 229 237 250 250 229 239 250 249 258 11 47 65 80 103 131 135 135 124 110 152 170 149 139 131 124 123 118 121 130 136 137 138 140 140 143 147 147 149 151
0 2 2 2 3 2 360 358 353 347 340 330 324 319 315 312 310 310 310 312 317 322 333 349 3 10 343 301 276 258 150 47 36 19 353 162 171 172 169 175 191 205 211 211 212 210 212 219 223 236 260 285 266 224 232 246 259 9 48 61 75 96 112 126 128 129 123 134 178 158 134 127 121 121 120 118 126 134 139 141 142 141 142 147 148 145 150 151
1 3 3 3 3 2 0 357 352 345 335 325 320 315 313 311 310 312 309 307 313 320 329 347 16 355 295 274 270 270 77 38 22 47 98 151 159 168 176 181 188 203 211 208 211 212 217 224 226 241 278 288 256 219 223 261 28 58 68 79 84 99 116 120 117 118 121 133 157 143 129 121 115 124 125 122 132 141 144 143 143 144 144 148 146 146 153 149
1 2 3 2 359 359 360 356 351 343 334 327 320 315 313 310 310 313 308 303 310 316 320 348 19 315 284 274 271 311 58 21 19 71 131 150 161 173 183 184 186 203 210 206 209 213 219 231 243 244 262 256 234 223 204 258 1 87 94 94 95 102 114 120 115 112 117 87 32 134 129 117 105 125 128 131 140 145 145 145 148 148 146 147 145 148 152 149
2 359 359 359 357 356 356 354 350 341 337 330 323 320 316 313 311 310 304 301 312 315 316 3 13 316 289 272 264 15 41 19 47 106 142 150 170 180 184 184 187 203 213 211 207 211 220 234 257 250 268 304 236 233 183 213 254 102 100 104 115 115 107 119 125 123 130 89 335 207 134 118 108 121 129 138 143 145 148 150 151 148 146 147 146 150 153 151
3 358 355 354 354 354 353 351 347 342 340 332 326 324 318 320 317 312 306 299 315 316 300 6 343 283 279 274 57 46 36 43 96 140 154 155 170 175 182 183 188 211 219 217 208 208 221 234 259 256 268 279 241 220 93 198 192 111 110 134 132 131 120 130 140 127 121 107 321 275 139 123 116 125 137 148 146 147 152 154 153 149 148 149 149 154 154 152
2 358 354 350 349 351 350 347 345 343 340 332 330 327 323 329 326 323 308 299 314 293 268 1 307 272 268 280 61 72 156 126 156 163 163 158 158 160 171 179 191 216 219 225 216 206 219 233 254 262 260 263 260 248 211 214 198 121 140 158 150 155 140 148 153 133 124 120 303 310 130 136 135 136 146 155 154 153 155 158 156 150 151 152 152 157 153 155
0 357 353 348 346 347 346 344 343 343 340 335 336 332 325 330 336 334 304 302 292 244 322 310 259 258 258 198 86 118 161 186 182 162 162 159 154 158 164 174 189 198 201 232 226 200 218 235 241 250 243 245 266 263 225 211 172 133 175 172 171 176 146 153 166 164 152 143 203 255 126 134 141 145 154 161 162 160 156 160 161 154 155 155 154 159 155 158
358 354 351 348 345 342 343 341 340 342 339 335 335 325 319 332 343 335 299 279 228 225 292 275 234 244 278 64 117 166 182 184 160 153 170 174 162 158 158 165 178 182 190 216 228 196 216 237 235 240 241 227 234 244 231 216 173 153 195 206 173 181 160 155 174 200 168 140 174 229 132 141 150 155 161 163 166 165 158 162 166 157 158 157 156 161 157 159
355 351 348 345 342 340 340 337 338 342 335 334 330 314 313 331 339 331 278 274 288 241 249 271 278 257 276 91 151 179 162 136 149 164 176 196 181 155 160 166 169 174 187 199 207 203 207 224 229 231 239 231 225 232 231 225 200 170 189 152 189 194 173 156 175 208 166 143 160 165 140 144 153 161 162 166 172 168 160 164 169 161 160 160 160 163 159 162
353 348 344 342 341 337 335 334 338 339 331 331 321 306 309 318 327 301 269 287 227 233 242 252 274 266 179 133 173 154 135 149 162 171 169 191 184 162 172 175 166 172 185 192 197 204 196 203 222 222 223 225 225 224 230 233 190 181 192 137 201 191 171 163 163 176 160 146 152 149 139 144 155 164 164 169 176 172 163 165 171 166 163 163 164 165 161 164
349 345 341 340 338 333 332 332 336 336 328 329 321 314 310 290 283 252 237 219 213 250 278 211 247 295 92 117 123 102 135 149 160 175 175 183 179 175 181 175 176 184 193 188 185 199 196 198 216 221 219 215 218 222 230 351 52 238 200 116 202 173 152 173 154 158 159 146 157 152 139 153 160 164 166 170 179 177 166 166 173 171 167 167 170 167 162 166
346 343 338 337 335 330 329 328 334 330 312 327 318 296 291 281 255 216 220 221 242 339 9 22 340 325 68 97 84 106 140 170 192 183 173 182 183 186 184 180 186 192 209 197 175 190 201 212 213 215 222 211 215 225 213 126 110 250 197 122 157 150 120 179 153 153 154 136 165 156 138 159 166 166 170 170 181 184 170 169 176 175 172 174 176 167 164 169
342 340 335 335 332 326 324 323 328 317 294 323 304 271 322 7 352 9 338 241 152 29 337 11 357 325 5 6 324 196 176 189 202 174 168 189 196 193 179 185 194 191 212 206 176 185 202 223 220 215 227 220 217 224 218 176 155 194 193 150 168 147 119 150 145 149 161 155 174 159 144 162 168 171 176 174 185 188 175 174 178 178 174 177 180 170 166 171
339 337 332 332 328 323 321 316 318 309 285 291 279 269 358 26 348 344 328 286 112 85 282 12 275 229 91 337 280 234 216 186 176 169 169 196 209 202 174 188 207 195 199 206 189 186 200 229 227 215 227 234 224 220 232 253 215 198 201 167 168 144 112 102 140 154 176 185 168 166 159 159 165 181 194 188 191 190 180 179 181 179 174 178 181 170 170 175
336 333 330 330 326 322 315 309 310 302 274 258 269 288 358 21 328 326 304 280 122 137 254 11 298 84 112 175 135 205 222 174 161 166 167 206 217 215 203 199 214 205 191 203 204 196 204 221 226 220 226 235 221 213 226 246 242 226 209 45 179 151 125 111 190 166 163 101 159 165 157 142 163 182 209 216 212 203 188 182 185 183 177 180 179 169 175 177
333 330 329 327 324 319 310 305 299 286 255 248 266 304 349 343 323 331 307 279 218 123 69 29 345 32 40 18 143 212 230 164 168 160 165 210 206 191 224 213 217 214 190 206 217 224 222 209 220 218 205 212 205 202 222 234 233 200 156 260 220 135 131 142 172 160 134 77 148 147 126 148 191 188 199 222 242 240 206 181 183 191 184 181 180 174 177 178
331 328 327 322 321 316 304 297 278 262 248 253 261 299 321 321 325 328 308 276 194 126 138 163 207 52 56 110 186 235 257 177 172 152 169 218 214 182 219 215 223 216 188 206 222 237 232 214 227 211 178 197 216 206 215 232 238 191 156 163 95 103 136 138 148 156 140 149 167 156 145 185 203 204 196 190 215 240 221 188 185 195 188 183 182 178 179 179
331 327 323 318 318 309 299 294 258 259 267 264 310 2 314 324 323 316 294 257 158 96 145 165 173 82 114 170 181 243 235 182 130 137 176 227 255 258 228 192 220 237 205 200 212 243 234 208 227 203 173 202 225 221 209 218 247 218 133 115 126 167 185 136 146 168 147 158 188 186 185 137 188 210 197 179 191 212 219 204 195 194 189 186 185 181 180 180
329 325 319 313 311 302 290 315 319 285 278 323 28 325 319 323 313 300 271 248 106 47 12 110 72 19 341 139 193 266 186 138 135 156 184 224 236 245 234 188 200 244 214 184 208 232 222 177 185 204 206 211 220 223 199 198 242 218 99 142 146 165 191 148 164 196 147 119 190 196 181 124 195 206 187 183 191 197 207 210 202 197 190 188 187 182 182 182
329 323 315 307 305 289 272 292 299 285 313 25 333 309 325 316 300 262 257 303 69 43 331 73 66 294 264 215 234 273 108 140 188 169 171 213 223 233 229 195 203 211 180 202 211 181 177 205 205 207 221 219 217 220 180 170 225 100 93 243 193 169 190 180 195 197 144 118 190 207 191 172 202 185 174 184 194 195 199 201 199 199 194 189 188 183 182 183
329 321 311 303 295 279 268 273 277 281 330 343 302 312 314 295 276 243 252 17 62 199 82 104 151 193 222 206 209 251 187 166 200 152 166 203 228 251 263 245 233 203 181 224 231 154 168 211 219 214 220 216 214 219 169 160 210 115 141 241 233 198 195 202 226 204 155 155 213 216 205 190 123 165 174 181 196 200 198 196 194 195 194 193 190 184 183 182
328 317 308 297 281 275 267 248 247 264 298 300 298 307 291 272 249 254 278 47 33 82 97 231 151 130 231 207 171 211 209 144 132 170 187 200 197 227 263 285 264 217 181 224 244 262 166 180 228 226 222 219 214 215 165 160 198 139 183 225 225 217 207 213 236 241 202 209 211 203 192 173 149 191 190 185 198 199 193 192 191 190 192 197 196 186 183 183
327 316 304 278 240 228 243 228 221 247 275 289 298 291 275 257 244 269 35 58 301 28 135 235 79 184 261 248 173 173 213 167 164 172 182 214 191 203 223 215 246 228 199 217 225 235 189 179 258 226 221 230 217 200 150 168 204 187 203 220 211 216 214 233 238 265 246 228 229 199 177 182 201 190 193 200 202 194 188 187 184 185 189 193 200 191 184 185
325 314 294 259 236 229 238 270 359 264 272 286 290 278 262 254 252 321 45 167 240 1 32 18 8 6 277 275 98 96 221 163 183 179 183 217 197 199 215 194 211 216 202 209 193 182 195 204 212 207 212 240 229 200 165 191 209 201 205 202 210 216 193 226 225 245 249 232 290 275 192 194 189 144 189 202 199 186 180 187 183 181 184 186 195 195 184 185
328 317 281 243 235 231 238 268 281 270 280 282 277 264 256 276 337 20 352 290 30 13 11 342 325 356 252 250 126 68 275 125 194 207 196 220 202 204 214 200 256 255 225 210 195 183 187 188 198 201 191 216 237 213 175 192 201 202 208 196 210 219 210 229 207 223 257 211 234 275 241 187 121 142 194 189 184 173 167 184 187 179 181 183 188 193 187 186
336 311 252 228 231 229 231 248 257 268 285 278 264 255 260 294 29 21 293 26 54 320 241 71 284 252 261 310 100 230 272 130 240 220 178 217 216 213 214 183 247 275 266 223 208 196 198 192 192 197 182 188 220 225 200 201 200 206 217 207 216 226 225 239 197 203 278 267 234 264 260 193 123 198 214 175 168 164 155 172 181 177 179 180 182 188 189 187
358 339 192 220 234 229 227 239 249 259 276 275 260 259 270 329 23 338 346 22 13 305 349 88 275 270 31 338 335 4 1 351 284 267 190 205 201 222 240 198 213 246 254 247 235 204 216 223 184 183 189 182 199 228 227 216 209 206 218 220 220 219 223 247 244 241 268 274 259 241 263 24 106 196 213 157 154 159 153 160 166 171 175 175 178 185 188 187
114 142 186 214 225 221 224 237 247 247 259 267 260 270 326 37 3 0 13 339 313 328 324 252 257 289 339 285 306 77 65 330 302 295 256 191 184 208 235 215 231 256 248 260 277 225 226 231 164 170 193 188 194 220 223 222 222 190 206 229 220 184 192 235 255 255 258 262 236 196 239 27 117 175 174 147 150 149 152 149 150 163 169 172 180 183 184 185
199 190 192 200 196 206 223 234 242 239 247 262 274 326 357 56 3 347 6 329 308 308 293 280 292 308 283 267 262 123 156 212 319 297 274 195 171 260 241 203 27 292 274 277 289 260 249 238 149 162 198 194 192 213 217 229 248 214 200 216 207 183 182 204 252 249 244 251 217 180 217 214 194 199 169 172 167 153 156 147 143 158 167 174 185 180 176 178
239 220 196 177 173 205 228 235 247 250 254 262 271 340 302 50 46 350 353 327 297 273 281 301 26 287 281 299 305 125 144 176 187 257 271 248 159 327 280 241 130 262 277 275 261 254 263 255 163 168 201 189 181 209 216 221 239 250 244 212 198 199 192 185 226 239 227 241 238 214 227 214 186 180 165 180 190 163 154 145 151 167 170 177 184 176 174 177
247 237 183 149 161 216 232 241 253 257 255 258 218 150 271 25 78 4 346 322 291 301 313 322 136 251 272 314 325 48 117 225 189 186 219 241 135 183 293 308 138 225 263 263 259 251 259 259 179 168 195 186 178 207 213 203 215 238 266 234 206 209 218 203 210 237 243 256 266 259 254 238 95 146 159 171 186 168 151 151 166 176 170 177 182 174 175 176
232 245 155 136 160 210 233 250 254 254 253 282 355 111 216 346 115 91 7 327 297 308 329 326 307 266 274 280 269 226 339 273 199 212 188 131 149 172 283 318 312 295 286 265 268 271 240 251 226 177 190 191 190 205 213 204 197 209 231 232 210 204 219 222 217 223 235 239 233 256 262 103 30 135 159 161 157 155 165 164 166 173 169 175 179 171 170 167
235 252 142 138 164 201 237 247 246 263 259 245 6 175 87 329 316 86 96 302 301 317 321 318 313 303 293 277 269 107 238 240 200 284 150 139 209 201 173 316 316 312 291 257 247 242 240 262 265 212 193 202 202 199 213 219 206 201 210 219 222 214 209 220 224 217 225 232 234 253 244 143 299 300 147 156 147 147 167 156 146 166 168 166 171 168 168 167
251 257 126 141 166 199 244 250 200 285 273 109 75 57 91 266 291 328 183 235 265 243 258 286 307 306 298 300 324 349 266 253 170 233 44 113 121 33 67 310 303 303 297 274 263 345 340 286 270 248 230 228 216 198 208 224 221 208 207 215 228 229 216 223 227 213 224 237 237 249 243 155 266 280 122 130 135 134 141 129 131 156 157 151 159 165 167 166
239 181 125 149 175 210 250 255 160 226 285 58 58 106 130 224 257 327 315 265 269 256 277 294 299 298 307 314 307 293 263 269 133 324 333 126 136 53 354 308 300 299 290 272 278 18 328 267 252 252 262 252 224 199 196 218 227 215 207 211 224 232 225 232 243 234 231 238 236 248 247 171 193 267 100 111 122 125 123 115 123 139 144 147 156 164 165 158
257 225 133 158 186 218 251 267 243 199 121 85 223 168 155 291 348 349 345 359 321 296 303 315 291 289 319 315 295 301 324 277 219 208 268 199 126 110 295 298 306 291 262 284 312 313 248 266 250 236 240 231 216 198 186 202 219 225 216 205 214 232 230 228 244 250 246 238 229 238 252 147 127 150 129 131 127 121 115 113 124 136 139 147 154 161 164 156
280 263 148 162 189 222 252 288 300 274 127 168 220 177 182 187 98 339 324 2 337 308 307 326 327 290 301 298 275 279 273 262 258 206 232 229 136 145 254 297 294 267 254 341 313 289 252 268 263 239 225 218 214 208 201 204 205 223 228 205 205 224 230 230 234 233 240 242 232 236 240 116 107 143 161 141 128 119 113 114 127 138 138 143 150 154 158 158
268 232 199 174 184 226 246 259 291 294 140 180 209 186 216 203 130 151 282 281 175 297 296 308 307 271 276 278 265 261 251 253 271 267 239 227 178 158 209 292 272 248 48 330 284 276 270 253 258 262 251 242 250 272 268 243 209 209 224 218 212 216 223 235 238 225 237 250 239 239 213 145 124 175 181 144 129 123 116 113 112 123 135 138 140 146 153 156
260 250 240 193 181 218 232 207 225 257 243 183 192 165 213 239 135 153 230 311 39 288 276 273 282 274 284 297 284 284 297 277 273 269 263 258 210 144 216 276 265 137 128 261 254 257 285 263 252 267 258 243 247 258 256 246 222 209 215 220 220 215 215 228 238 241 298 257 244 289 262 184 158 166 181 152 131 125 116 108 90 95 136 139 138 141 147 151
250 269 306 1 228 215 220 203 204 225 225 202 192 156 209 239 198 174 188 113 195 269 254 224 241 276 304 318 302 295 291 272 271 287 297 286 266 199 198 253 271 149 182 243 243 243 288 269 257 271 258 232 233 239 238 237 232 219 215 215 212 213 216 224 236 245 264 254 273 6 7 336 143 146 156 140 127 121 111 106 102 88 113 129 139 141 143 150
256 268 287 225 247 256 301 62 203 243 239 212 215 216 226 238 213 178 344 248 204 214 288 270 241 284 300 314 294 288 281 248 263 274 257 275 291 273 203 220 257 254 254 262 252 237 278 269 278 289 274 232 221 227 231 232 234 234 239 241 228 220 217 220 233 243 251 263 276 44 55 41 44 98 120 112 113 115 111 113 122 131 122 126 137 137 134 138
302 310 326 238 242 263 283 229 225 249 228 181 217 219 224 248 226 149 150 275 271 133 247 277 307 276 286 290 264 276 302 225 265 263 205 246 298 293 274 229 255 273 294 289 274 201 242 279 322 304 286 243 210 212 219 216 208 207 240 252 240 230 224 220 242 262 245 239 226 121 96 74 57 69 89 101 110 117 127 131 127 137 148 143 141 135 125 116
315 315 335 285 252 238 241 226 225 244 219 188 208 201 204 235 227 145 143 313 322 321 252 277 289 239 268 265 253 278 12 235 261 277 232 241 282 265 264 10 306 282 285 278 266 227 232 255 280 263 273 251 213 205 199 185 172 155 117 335 257 246 238 179 45 320 280 213 183 131 116 119 97 85 93 115 122 124 132 131 125 133 147 146 141 129 114 107
315 281 271 274 262 218 235 236 220 236 243 215 193 184 213 215 169 166 202 163 242 280 318 340 292 250 241 205 212 322 356 279 263 271 259 264 281 271 257 280 287 304 311 285 267 241 237 246 266 248 252 248 222 197 182 187 172 140 53 5 33 3 293 144 118 63 56 89 196 156 127 122 107 106 127 135 131 133 132 129 131 133 127 120 117 112 111 124